Flag for Canada Weather past 2 weeks in Markham, Ontario, Canada

Now
9 °F

Partly sunny.


Feels Like: -9 °F
Forecast: 2 / 26 °F
Wind: 16 mph from North

Location: Toronto Buttonville

Current Time: Jan 30, 2015 at 9:21:29 AM

Latest Report: Jan 30, 2015 at 9:00 AM


Visibility: 15 mi

Pressure: 30.17 "Hg

Humidity: 72%

Dew point: 1 °F

Location of MarkhamLocation

Historic Weather in Markham — Graph

°F

Markham temperature yesterday

Maximum temperature yesterday: 32 °F (at 12:00 PM)
Minimum temperature yesterday: 19 °F (at 12:00 AM)
Average temperature yesterday: 27 °F

Past Weeks' High & Low Weather Summary

 TemperatureHumidityPressure
High41 °F (Jan 18, 7:00 AM)100% (Jan 18, 10:00 AM)30.39 "Hg (Jan 18, 10:00 AM)
Low3 °F (Jan 21, 6:00 AM)26% (Jan 28, 4:00 PM)29.47 "Hg (Jan 24, 3:00 PM)
Average21 °F70%30.00 "Hg
* Reported Jan 15 8:00 AM — Jan 30 8:00 AM, Markham, Weather by CustomWeather, © 2014

Note: Actual official high and low records may vary slightly from our data, if they occured in-between our weather recording intervals... More about our weather records

Advertising

Markham weather history for previous 24 hours

 ConditionsComfort  
Time TempWeatherWind HumidityBarometerVisibility
8:00 AM
Jan 30
10 °FLight snow. Partly sunny.21 mph72%30.14 "Hg15 mi
7:55 AMN/ALight snow.9 mphN/AN/A15 mi
7:00 AM12 °FLight snow. Passing clouds.21 mph73%30.10 "Hg12 mi
6:00 AM16 °FOvercast.22 mph79%30.05 "Hg12 mi
5:00 AM23 °FMostly cloudy.22 mph80%30.00 "Hg15 mi
4:00 AM25 °FOvercast.14 mph80%29.96 "Hg15 mi
3:00 AM27 °FMostly cloudy.15 mph80%29.93 "Hg15 mi
2:00 AM27 °FOvercast.16 mph80%29.90 "Hg12 mi
1:00 AM28 °FOvercast.14 mph80%29.88 "Hg12 mi
12:00 AM28 °FOvercast.9 mph80%29.85 "Hg10 mi
11:00 PM
Jan 29
28 °FOvercast.8 mph86%29.83 "Hg10 mi
10:00 PM28 °FOvercast.10 mph86%29.81 "Hg10 mi
9:45 PMN/ALight snow.6 mphN/AN/A7 mi
9:00 PM28 °FLight snow. Ice fog.6 mph93%29.79 "Hg2 mi
8:00 PM28 °FLight snow. Ice fog.7 mph93%29.77 "Hg1 mi
7:00 PM28 °FLight snow. Ice fog.6 mph100%29.76 "Hg1 mi
6:00 PM30 °FLight snow. Overcast.2 mph93%29.75 "Hg2 mi
5:00 PM28 °FSnow flurries. More clouds than sun.2 mph100%29.74 "Hg2 mi
4:00 PM28 °FSnow flurries. Ice fog.7 mph100%29.74 "Hg1 mi
3:51 PMN/ASnow flurries.5 mphN/AN/A1 mi
3:00 PM28 °FSleet. Low clouds.6 mph100%29.75 "Hg6 mi
2:52 PMN/ALight freezing rain.6 mphN/AN/A8 mi
2:00 PM28 °FLight snow. Ice fog.3 mph93%29.77 "Hg1 mi
1:00 PM28 °FLight snow. Ice fog.7 mph86%29.81 "Hg1 mi
12:00 PM32 °FMostly cloudy.9 mph47%29.84 "Hg15 mi
11:00 AM30 °FMostly cloudy.12 mph55%29.87 "Hg15 mi
10:00 AM30 °FMostly cloudy.12 mph51%29.94 "Hg15 mi
9:00 AM28 °FMore clouds than sun.12 mph55%30.00 "Hg15 mi
Weather by CustomWeather, © 2014

See weather overviewHow to use our weather pages